Wetbulb
60.56 60.19 59.84 60.02 60.16 59.87 59.90 59.60 59.47 59.32 58.97 58.84 59.07 60.39 60.26 60.84 59.93 56.65 52.96 56.97 58.90 62.21 61.96 57.80 55.41 54.78 55.57 53.35 54.14 51.05 43.74 40.95 42.54 43.07 43.73 46.55 45.69 46.99 47.61 45.22 44.19 45.07 45.74 48.91 51.24
60.24 60.15 60.28 60.23 60.06 59.50 59.32 59.14 58.87 58.50 59.02 58.97 59.26 59.36 59.44 59.27 53.75 51.46 56.38 59.65 60.35 61.03 57.15 54.17 51.97 52.99 49.89 50.68 50.23 46.53 43.03 43.45 46.15 45.88 44.81 46.83 45.99 45.14 43.01 43.56 43.62 45.31 48.85 50.53 51.23
59.20 59.11 59.25 59.20 58.66 58.47 58.62 58.65 59.09 59.05 59.26 58.90 59.33 59.55 59.40 56.71 50.49 48.75 58.41 59.03 59.34 59.14 56.47 55.55 55.05 52.61 48.87 49.84 47.90 45.87 43.48 46.54 46.89 47.71 47.97 46.08 44.02 46.10 42.67 42.39 45.16 44.11 47.21 49.06 48.72
58.42 58.06 57.87 57.84 57.80 57.94 58.01 58.29 58.96 59.08 58.64 58.83 59.34 59.40 58.77 54.59 41.73 51.05 57.62 57.77 58.69 56.85 54.91 53.69 52.08 48.71 47.03 45.54 48.88 43.35 46.67 47.41 47.42 47.50 46.35 44.06 46.01 42.55 44.12 43.92 48.02 48.15 47.95 47.57 47.58
57.39 57.30 57.54 57.74 57.62 57.56 57.69 58.16 58.20 58.70 58.48 58.73 58.45 58.79 52.85 48.50 46.13 53.97 59.83 59.68 55.40 55.86 53.23 52.27 48.98 48.50 45.46 46.56 46.27 43.64 44.55 47.02 46.96 45.74 44.59 46.14 43.75 43.55 44.14 46.35 48.68 47.96 48.41 46.53 47.81
57.06 56.74 56.46 56.62 57.01 57.35 57.84 58.44 58.06 58.48 58.00 58.50 57.29 56.12 50.19 43.78 52.39 53.87 53.26 53.67 53.84 54.29 52.45 51.45 48.92 48.63 45.76 44.49 43.07 45.37 45.40 44.89 45.57 46.01 46.06 44.01 43.90 43.64 44.80 46.52 47.98 46.96 46.30 47.30 48.06
56.64 56.04 56.21 56.30 56.55 56.89 56.91 57.09 57.70 57.45 57.55 58.39 57.79 51.68 48.89 45.39 52.87 53.39 54.11 52.64 54.05 53.92 51.91 52.50 50.91 47.36 46.07 43.04 46.22 45.53 42.15 43.27 44.39 45.45 43.65 43.35 40.18 41.51 44.21 46.59 47.13 46.40 46.45 47.10 48.49
56.74 55.97 55.71 56.08 56.37 56.34 56.24 56.52 56.83 56.55 56.71 57.35 57.38 51.71 45.15 53.45 53.24 52.79 53.86 52.32 53.99 54.81 53.38 53.27 52.82 49.02 47.18 46.15 44.48 41.51 40.41 37.46 42.37 43.77 43.71 40.99 37.84 43.83 44.73 44.17 44.35 45.18 45.57 46.26 47.60
57.10 56.20 55.94 56.06 56.41 56.34 56.33 56.81 56.82 55.90 55.94 55.50 52.28 49.75 44.22 53.40 50.18 52.22 52.95 50.44 51.84 52.66 52.36 52.21 50.47 46.09 45.08 40.59 37.48 38.43 33.99 37.80 38.59 42.98 42.46 40.47 38.42 42.75 45.36 44.04 43.04 44.07 44.35 46.06 45.74
56.81 56.23 55.89 56.22 56.12 55.80 55.84 56.01 56.47 55.20 53.86 52.08 49.83 47.08 47.82 46.31 50.50 51.27 53.14 52.53 50.45 50.03 50.17 48.89 46.17 41.55 40.23 37.61 32.21 33.78 33.96 35.27 35.87 40.05 41.27 39.70 39.65 43.69 43.36 43.62 40.24 41.30 43.36 44.38 45.10
56.43 56.17 56.12 56.29 55.81 55.26 55.29 53.16 50.30 49.15 49.48 45.09 46.05 45.97 47.61 50.67 51.89 50.25 51.84 50.47 49.35 46.72 42.02 44.66 39.79 36.40 37.49 38.42 37.89 37.83 35.76 35.11 38.86 41.07 38.18 39.77 40.98 42.81 42.57 40.56 39.81 40.25 42.62 43.62 44.55
56.16 55.97 55.47 55.62 55.21 54.77 54.02 50.23 48.91 50.38 43.34 48.74 47.98 47.87 49.77 50.59 47.03 48.56 51.91 45.47 44.89 41.49 42.60 40.16 36.98 39.63 41.39 40.38 39.08 37.38 36.16 35.83 39.61 41.12 37.79 38.38 38.05 40.99 41.96 41.12 42.06 42.56 43.26 44.37 45.11
55.65 55.70 55.08 54.80 54.14 54.01 52.15 50.70 54.12 53.05 45.90 45.45 47.83 47.73 48.41 49.89 45.93 46.08 48.54 45.84 42.80 41.17 40.55 38.75 39.11 42.02 40.62 38.50 39.10 37.92 35.16 34.95 34.84 38.82 39.33 36.70 34.71 36.73 40.56 41.48 42.28 43.52 44.34 45.01 44.45
55.22 55.13 54.35 53.33 51.65 52.77 50.86 53.51 54.45 54.12 43.91 41.64 44.56 46.18 48.77 49.46 44.50 49.36 48.22 46.39 43.23 40.58 41.34 38.68 40.68 40.37 38.46 38.85 38.61 35.64 38.38 38.18 37.65 34.25 29.40 36.23 26.59 34.17 37.35 38.44 40.33 41.37 41.51 40.64 40.72
54.76 54.04 54.28 53.14 52.38 49.93 52.32 53.76 53.96 49.84 29.33 44.70 44.28 50.96 48.51 45.97 45.62 45.46 47.67 45.35 40.61 40.54 39.47 36.49 37.86 37.21 37.96 37.61 38.60 35.89 38.66 36.55 36.33 32.88 32.12 32.38 27.63 32.60 37.79 36.26 37.94 39.81 40.75 40.77 41.03
54.69 54.11 53.47 52.64 53.48 52.33 53.98 53.28 51.03 40.83 28.03 40.67 45.70 44.43 43.33 44.71 44.25 45.51 44.76 45.72 44.32 41.34 40.46 37.86 40.41 38.50 37.08 39.68 39.12 40.00 36.84 36.76 34.72 32.73 25.56 32.23 30.66 31.38 33.45 37.23 37.61 40.28 40.78 41.39 41.26
54.39 52.97 53.04 52.39 49.58 53.69 53.77 50.91 40.30 35.38 42.19 39.42 41.25 43.32 42.15 41.00 41.73 42.39 41.61 38.45 36.38 32.95 32.41 36.82 36.98 38.37 40.13 36.41 38.33 37.66 33.71 28.50 27.21 25.24 26.04 32.82 29.68 31.35 34.72 37.19 39.51 39.54 39.37 40.04 41.11
53.50 52.83 52.98 53.14 54.94 54.33 51.62 43.64 33.10 40.09 39.18 43.10 42.19 41.00 38.95 40.25 39.78 40.59 38.57 35.80 36.98 36.54 33.94 31.78 29.78 36.72 38.20 35.77 33.51 34.33 32.95 28.25 21.94 23.22 24.86 32.67 26.59 32.07 37.12 38.57 40.26 41.66 40.41 41.58 41.58
52.78 54.49 53.98 53.40 54.35 52.86 48.05 39.51 37.51 38.20 42.01 40.41 40.38 36.90 37.33 39.11 37.67 38.33 36.77 36.54 36.00 35.53 32.15 32.06 30.61 36.57 37.98 38.19 36.95 34.11 29.40 34.53 29.48 28.40 23.39 27.96 31.24 33.67 36.72 36.50 37.99 39.17 40.73 40.22 41.04
52.47 52.84 53.02 54.21 54.54 51.66 44.78 41.15 39.57 43.29 42.51 41.74 35.49 37.38 35.89 37.30 35.66 36.15 36.72 36.84 36.30 36.89 37.19 34.07 28.45 35.97 36.38 37.80 37.12 34.19 36.61 28.69 28.02 20.11 22.30 27.73 29.16 29.58 32.03 34.17 36.94 37.39 38.52 39.39 40.35
51.45 48.12 51.52 54.19 53.05 47.44 38.39 40.96 42.08 43.99 43.68 40.67 38.28 36.98 37.02 36.95 36.76 35.91 36.44 36.21 37.98 36.61 36.58 35.48 33.23 31.07 34.39 32.45 33.24 31.75 30.61 31.45 31.13 29.21 21.93 19.92 23.79 35.14 34.70 36.49 36.31 37.71 38.89 38.84 38.83
48.66 40.89 51.21 53.25 44.38 44.05 40.89 41.95 42.89 41.75 43.20 42.23 40.76 39.94 37.54 38.00 36.24 35.58 36.34 37.92 38.80 38.98 35.15 35.10 34.67 27.71 32.32 35.16 36.75 34.50 33.18 33.67 25.10 25.20 26.45 23.58 24.06 36.13 35.79 36.06 37.46 36.85 39.57 39.41 38.93
45.49 44.98 50.78 50.36 39.07 39.77 41.88 42.80 43.01 41.19 41.42 40.74 39.77 41.09 40.30 37.39 33.97 37.84 37.78 39.17 38.98 37.58 35.40 36.51 31.14 25.02 26.28 29.74 32.87 30.68 34.04 34.34 31.28 28.63 25.80 19.95 24.23 36.31 34.86 35.67 37.40 36.53 37.18 37.80 38.73
44.70 40.23 44.48 45.56 43.97 39.86 39.81 39.92 39.44 42.86 42.34 42.20 41.01 41.03 38.53 36.87 38.29 35.81 36.83 37.98 38.14 38.33 41.65 40.08 32.56 29.76 25.84 28.71 32.19 27.71 31.86 33.75 30.74 23.41 24.16 27.41 29.91 32.94 34.28 35.07 35.54 35.77 36.10 36.45 37.40
45.36 41.23 42.05 39.11 40.32 40.47 40.05 39.96 39.37 38.17 41.34 41.78 39.02 39.54 38.30 35.00 36.30 34.99 37.98 36.90 37.10 39.80 37.12 36.32 24.82 29.93 32.86 34.53 33.77 32.50 32.41 32.88 27.83 30.51 24.50 28.40 30.04 32.85 32.67 32.55 33.20 33.09 34.55 35.24 35.99
41.58 41.12 40.77 39.74 40.61 39.24 39.23 38.03 38.57 40.28 39.55 38.43 37.66 40.10 39.19 36.30 37.26 34.95 37.57 36.47 35.80 34.93 34.90 35.36 25.39 23.94 21.18 31.87 31.98 29.24 31.71 32.68 32.83 33.20 32.48 32.76 31.76 33.14 33.52 33.24 31.99 32.32 33.51 33.01 34.33
45.78 45.40 41.13 39.96 38.49 37.12 37.43 38.61 39.22 40.95 41.19 41.53 40.52 39.10 38.06 38.91 40.13 39.72 39.37 39.87 38.83 35.53 33.87 32.20 27.48 23.79 22.61 28.09 26.33 20.75 28.23 30.24 30.80 32.43 31.85 27.21 30.32 32.24 31.46 32.61 31.70 31.28 31.70 32.10 33.15
MSLP
1014.92 1014.75 1014.53 1014.47 1014.38 1014.52 1014.52 1014.38 1014.37 1014.51 1014.65 1014.56 1014.59 1014.75 1014.53 1014.55 1014.63 1014.58 1014.30 1014.49 1014.04 1014.00 1013.94 1013.35 1012.74 1012.41 1012.22 1012.29 1012.14 1011.97 1012.11 1011.91 1011.65 1011.82 1012.33 1012.85 1013.04 1013.58 1013.89 1013.90 1013.79 1014.10 1014.59 1015.50 1015.78
1015.16 1015.03 1014.93 1014.85 1014.84 1014.84 1014.57 1014.53 1014.54 1014.64 1014.57 1014.68 1014.70 1014.76 1014.54 1014.80 1014.62 1014.22 1014.76 1014.29 1014.03 1013.91 1013.57 1012.96 1012.48 1012.27 1012.07 1012.19 1012.19 1012.15 1012.23 1012.46 1012.52 1012.56 1012.80 1013.25 1013.56 1013.81 1014.13 1014.14 1014.29 1014.52 1015.06 1015.53 1015.87
1015.77 1015.40 1015.32 1015.21 1015.15 1014.88 1014.64 1014.68 1014.71 1014.70 1014.63 1014.70 1014.71 1014.41 1014.59 1014.65 1014.18 1014.12 1014.38 1014.03 1013.78 1013.73 1013.45 1012.90 1012.31 1012.01 1011.90 1012.12 1012.40 1012.33 1012.72 1013.00 1013.46 1013.55 1013.60 1013.78 1014.07 1014.24 1014.46 1014.44 1014.24 1014.74 1015.19 1015.67 1016.06
1015.67 1015.62 1015.58 1015.50 1015.26 1015.03 1014.93 1014.82 1014.67 1014.58 1014.56 1014.86 1014.50 1014.34 1014.34 1014.25 1014.25 1014.18 1014.07 1013.73 1013.49 1013.42 1013.13 1012.78 1012.40 1012.03 1011.84 1012.26 1012.59 1012.92 1013.34 1013.61 1014.11 1014.51 1014.51 1014.46 1014.55 1014.46 1014.60 1014.70 1014.76 1015.20 1015.61 1015.91 1016.09
1016.12 1015.96 1015.55 1015.26 1015.41 1015.33 1015.09 1015.08 1014.97 1014.80 1014.79 1014.61 1014.21 1014.17 1014.25 1013.81 1014.00 1013.82 1013.85 1013.38 1013.11 1013.21 1012.98 1012.67 1012.20 1011.87 1011.89 1012.24 1012.89 1012.98 1013.74 1014.25 1014.64 1014.92 1015.02 1014.89 1014.98 1014.84 1014.51 1014.52 1014.97 1015.56 1015.82 1016.02 1016.28
1016.09 1015.97 1015.81 1015.63 1015.41 1015.34 1015.23 1015.09 1014.69 1014.67 1014.64 1014.15 1014.21 1014.01 1013.78 1013.71 1014.04 1013.91 1013.74 1013.32 1013.29 1013.07 1013.13 1012.84 1012.49 1012.23 1012.19 1012.72 1013.17 1013.43 1013.94 1014.45 1014.78 1014.85 1014.95 1015.09 1014.90 1014.93 1014.30 1014.48 1014.97 1015.66 1015.94 1016.22 1016.42
1015.94 1015.91 1015.79 1015.55 1015.28 1015.05 1014.83 1014.58 1014.53 1014.53 1014.23 1014.21 1014.03 1013.67 1013.47 1014.39 1013.95 1013.85 1013.54 1013.54 1013.48 1013.39 1013.30 1013.37 1013.09 1012.95 1012.69 1013.29 1013.68 1013.93 1014.23 1014.62 1014.75 1014.79 1014.96 1015.24 1015.19 1014.47 1014.48 1014.64 1015.03 1015.72 1015.87 1016.23 1016.60
1015.73 1015.57 1015.49 1015.34 1015.09 1014.90 1014.85 1014.77 1014.56 1014.36 1014.23 1014.06 1013.84 1013.64 1014.03 1014.37 1014.14 1013.84 1013.51 1013.48 1013.63 1013.63 1013.63 1013.58 1013.29 1013.19 1013.10 1013.69 1013.88 1013.95 1014.04 1014.35 1014.59 1014.83 1015.13 1015.45 1014.58 1014.14 1014.45 1014.90 1015.41 1015.73 1015.84 1016.25 1016.70
1015.93 1015.68 1015.44 1015.29 1015.11 1014.91 1014.69 1014.49 1014.33 1014.17 1014.02 1013.81 1013.75 1013.61 1014.21 1014.36 1014.24 1014.11 1014.03 1013.74 1013.76 1013.81 1013.80 1013.73 1013.55 1013.52 1013.77 1013.71 1013.79 1013.56 1013.61 1013.84 1014.57 1014.70 1014.93 1015.23 1014.50 1014.27 1014.42 1014.80 1015.26 1015.47 1015.98 1016.37 1016.96
1016.07 1015.80 1015.52 1015.26 1015.05 1014.84 1014.58 1014.40 1014.12 1013.93 1013.72 1013.47 1013.29 1013.71 1014.28 1014.40 1014.42 1014.42 1014.24 1014.13 1013.93 1013.91 1013.98 1013.80 1013.71 1013.78 1013.78 1013.62 1013.72 1013.33 1013.30 1013.37 1013.81 1014.77 1014.93 1014.86 1014.32 1014.23 1014.30 1014.73 1015.24 1015.49 1015.99 1016.66 1017.22
1016.22 1015.97 1015.68 1015.38 1015.14 1014.90 1014.29 1014.36 1014.58 1014.25 1013.93 1014.19 1014.08 1014.05 1014.15 1014.52 1014.58 1014.37 1014.38 1014.20 1014.05 1014.05 1013.81 1013.80 1014.03 1014.26 1014.18 1013.97 1013.87 1013.48 1013.41 1013.48 1013.87 1014.74 1015.09 1014.58 1014.22 1013.94 1014.26 1014.69 1015.25 1015.71 1016.20 1017.01 1017.54
1016.31 1015.97 1015.68 1015.40 1015.13 1014.80 1014.67 1014.47 1015.23 1015.46 1015.03 1014.50 1014.36 1014.37 1014.48 1014.53 1014.33 1014.48 1014.41 1014.37 1014.06 1013.78 1013.81 1014.19 1014.40 1014.77 1014.77 1014.55 1014.33 1013.94 1013.97 1014.05 1014.32 1014.89 1015.17 1014.60 1014.33 1014.18 1014.41 1014.82 1015.13 1015.71 1016.47 1017.20 1017.75
1016.29 1015.94 1015.57 1015.30 1015.06 1014.90 1014.69 1015.24 1015.40 1015.25 1014.92 1014.69 1014.44 1014.25 1014.55 1014.65 1014.57 1014.66 1014.54 1014.28 1013.92 1013.83 1013.94 1014.32 1015.25 1015.28 1015.17 1015.01 1014.81 1014.74 1014.94 1015.15 1015.60 1015.50 1014.83 1015.09 1014.40 1014.54 1014.95 1015.26 1015.53 1015.92 1016.56 1017.27 1017.80
1016.35 1015.95 1015.61 1015.24 1015.40 1014.87 1015.01 1015.41 1015.34 1015.31 1014.93 1014.87 1014.42 1014.53 1014.55 1014.40 1014.66 1014.81 1014.82 1014.94 1014.26 1014.27 1014.39 1015.22 1015.79 1015.67 1015.60 1015.48 1015.59 1015.82 1016.18 1016.27 1016.41 1016.36 1015.91 1015.50 1015.50 1015.02 1015.32 1015.87 1016.34 1016.80 1017.29 1017.89 1018.32
1016.55 1016.12 1015.74 1015.54 1015.35 1015.12 1015.57 1015.33 1015.29 1015.41 1015.16 1014.76 1014.39 1014.45 1014.37 1014.43 1014.67 1014.86 1015.05 1014.83 1014.54 1014.71 1015.21 1015.99 1016.14 1016.19 1016.15 1016.36 1016.25 1016.84 1016.99 1017.10 1017.20 1017.14 1016.68 1015.92 1016.38 1015.08 1015.54 1016.22 1016.63 1017.11 1017.64 1018.24 1018.60
1016.75 1016.35 1015.94 1015.45 1015.23 1015.64 1015.47 1015.43 1015.46 1015.41 1014.76 1014.40 1014.22 1014.25 1014.24 1014.28 1014.49 1014.73 1014.90 1014.87 1014.96 1014.96 1015.37 1016.29 1016.71 1016.81 1016.86 1016.90 1017.02 1017.20 1017.33 1017.55 1017.54 1017.54 1017.52 1016.20 1016.32 1015.59 1015.69 1015.49 1016.17 1016.82 1017.56 1018.33 1018.78
1016.49 1016.40 1015.88 1015.62 1015.70 1015.60 1015.48 1015.31 1015.59 1014.75 1014.44 1014.16 1013.90 1013.92 1013.89 1014.13 1014.40 1014.46 1014.62 1014.81 1015.06 1015.37 1015.86 1016.67 1017.10 1017.41 1017.36 1017.42 1017.51 1017.56 1017.66 1018.18 1018.55 1018.35 1017.88 1017.05 1016.79 1015.58 1015.30 1015.25 1015.36 1016.52 1017.66 1018.49 1018.99
1016.51 1016.20 1016.05 1015.64 1015.73 1015.75 1015.47 1015.36 1015.00 1013.61 1013.58 1013.74 1013.69 1013.90 1013.92 1013.95 1014.17 1014.29 1014.51 1014.81 1015.03 1015.14 1015.50 1016.44 1017.36 1017.58 1017.62 1017.68 1017.75 1017.79 1018.01 1018.44 1018.91 1018.99 1018.48 1017.54 1016.48 1015.52 1015.55 1015.74 1016.13 1016.77 1017.75 1018.65 1019.21
1016.50 1015.90 1015.55 1015.84 1015.69 1015.67 1015.76 1015.11 1013.63 1013.00 1012.91 1013.27 1013.78 1013.61 1013.66 1013.93 1014.16 1014.20 1014.25 1014.37 1014.82 1015.19 1015.66 1015.91 1017.29 1017.95 1018.06 1018.22 1018.58 1018.41 1018.60 1018.84 1019.21 1019.21 1019.13 1017.53 1016.17 1016.26 1016.22 1016.62 1017.12 1017.72 1018.31 1018.90 1019.31
1016.29 1015.62 1015.37 1015.66 1015.84 1015.56 1015.48 1014.34 1013.16 1012.94 1012.88 1012.86 1012.89 1012.87 1012.82 1013.32 1013.85 1013.79 1013.97 1014.52 1015.13 1015.45 1015.62 1016.02 1017.04 1017.76 1018.38 1018.48 1018.68 1018.60 1018.93 1019.21 1019.90 1020.41 1019.76 1017.67 1016.65 1016.24 1016.62 1017.03 1017.51 1018.09 1018.70 1019.21 1019.65
1016.30 1015.52 1015.74 1015.65 1015.74 1015.70 1014.91 1013.83 1013.31 1013.21 1013.03 1012.96 1012.49 1012.56 1012.42 1012.79 1013.07 1013.21 1013.63 1014.75 1014.84 1015.59 1015.87 1016.20 1016.98 1018.62 1018.83 1018.66 1018.43 1019.08 1019.02 1019.42 1019.97 1020.42 1020.31 1019.08 1017.78 1016.76 1016.88 1017.17 1017.71 1018.11 1018.70 1019.23 1019.69
1016.22 1015.60 1015.42 1015.71 1015.91 1014.57 1014.13 1013.44 1013.27 1013.36 1013.52 1013.17 1012.96 1012.51 1012.29 1012.47 1013.03 1013.35 1013.73 1014.50 1015.13 1015.60 1016.14 1016.72 1017.15 1018.10 1018.53 1018.58 1018.62 1018.70 1018.83 1019.28 1020.38 1020.82 1020.57 1020.03 1018.56 1017.41 1017.34 1017.48 1017.73 1018.25 1018.61 1019.16 1019.50
1016.43 1015.33 1015.18 1015.04 1015.06 1014.30 1013.73 1013.64 1013.55 1013.51 1013.44 1013.43 1013.13 1012.92 1013.00 1013.00 1013.17 1013.39 1014.40 1015.64 1016.05 1016.51 1016.94 1017.11 1017.89 1018.64 1019.24 1019.45 1019.15 1019.00 1018.94 1019.31 1020.27 1020.93 1020.86 1020.18 1018.52 1017.76 1017.65 1018.18 1018.66 1019.07 1019.46 1019.78 1019.85
1016.70 1015.50 1015.15 1014.75 1014.15 1014.05 1013.38 1013.26 1013.49 1013.67 1013.36 1013.36 1013.38 1013.46 1013.32 1013.35 1013.59 1014.10 1014.90 1015.88 1016.36 1016.73 1017.23 1017.74 1018.63 1018.96 1019.06 1018.95 1018.74 1019.19 1019.11 1019.38 1020.15 1020.97 1019.78 1018.94 1018.17 1018.37 1018.57 1019.20 1019.59 1020.04 1020.22 1020.44 1020.55
1016.47 1015.08 1014.76 1014.45 1013.70 1013.55 1013.39 1013.04 1013.12 1013.54 1013.92 1013.72 1013.67 1013.66 1013.63 1013.67 1013.89 1014.56 1015.16 1016.33 1016.90 1017.30 1017.92 1018.59 1019.48 1019.68 1019.48 1019.09 1019.01 1019.17 1019.23 1019.42 1019.68 1019.39 1019.55 1018.52 1018.52 1018.78 1019.24 1019.86 1020.43 1020.83 1021.13 1021.21 1021.19
1016.34 1015.68 1015.15 1014.26 1013.68 1013.42 1013.17 1013.03 1012.88 1013.12 1013.66 1013.94 1013.89 1013.56 1013.86 1014.07 1014.17 1014.55 1015.01 1016.01 1016.63 1017.98 1018.28 1018.80 1019.82 1020.49 1020.37 1019.67 1019.51 1019.09 1019.02 1018.92 1018.78 1018.80 1018.56 1018.96 1018.92 1019.51 1019.93 1020.38 1021.00 1021.22 1021.29 1021.53 1021.63
1016.19 1015.80 1015.63 1014.18 1013.79 1013.13 1012.66 1012.60 1012.65 1012.84 1013.54 1013.87 1013.94 1014.46 1014.78 1014.92 1014.90 1015.31 1015.65 1015.89 1016.51 1017.45 1018.54 1019.52 1020.43 1021.48 1021.12 1020.57 1020.25 1019.41 1018.22 1017.98 1017.93 1018.21 1018.61 1019.04 1019.43 1019.95 1020.67 1021.19 1021.58 1021.79 1021.83 1021.76 1021.59
Wind_Speed
11 10 9 9 10 11 10 11 9 7 4 3 2 5 5 7 7 11 2 7 7 10 9 7 7 5 6 3 2 1 1 3 3 2 5 5 4 2 2 4 1 3 5 5 5
12 11 10 10 10 8 8 9 8 6 4 3 1 3 2 4 8 8 4 6 6 8 6 6 7 6 3 2 1 1 1 5 6 5 5 5 3 4 1 6 5 4 8 6 5
9 8 8 7 6 7 8 7 7 6 5 4 3 3 2 5 8 5 7 8 6 6 6 7 4 4 4 2 1 2 2 4 4 7 7 3 2 5 3 6 2 3 9 7 3
10 7 6 6 7 8 7 7 7 6 6 6 4 2 2 4 3 5 8 7 5 6 4 4 5 3 4 5 2 2 4 4 4 3 1 1 6 2 7 0 9 9 6 2 2
6 7 8 9 8 7 7 7 6 6 6 6 5 1 3 4 6 5 6 3 1 2 3 4 5 2 3 6 3 2 5 2 4 3 2 4 4 5 7 4 10 6 4 4 4
7 6 6 6 7 7 6 6 7 7 6 7 4 2 4 3 4 5 4 6 6 3 1 3 5 4 5 4 2 4 5 4 4 3 2 1 3 4 1 4 10 6 6 5 4
8 7 6 6 7 8 9 8 7 6 7 6 5 3 7 6 2 4 3 4 6 6 3 4 6 3 5 4 3 5 5 4 6 4 1 1 5 8 3 3 8 7 5 6 5
11 9 8 8 8 8 8 7 7 7 7 4 4 3 5 1 6 6 2 5 5 5 6 4 6 4 4 6 3 4 2 3 4 5 4 3 2 5 9 7 8 9 5 4 6
11 10 8 8 7 7 7 8 8 8 5 3 3 3 5 3 0 5 6 5 3 3 2 0 3 2 1 4 3 4 3 6 4 3 1 6 2 7 7 8 7 8 8 6 7
11 10 9 8 8 8 9 6 6 6 5 3 4 2 1 3 3 2 2 3 2 1 2 3 2 2 3 2 2 2 4 3 3 4 5 6 9 7 10 4 4 5 8 8 6
10 9 8 8 7 9 8 3 2 2 7 5 4 4 4 2 4 4 3 2 3 3 3 2 2 1 6 6 4 5 4 4 5 4 2 7 8 5 6 4 6 6 9 7 7
12 9 8 6 7 8 4 3 3 2 3 1 2 5 3 2 2 5 3 2 3 2 2 2 1 6 4 3 3 3 5 3 5 3 3 6 9 4 5 5 6 9 9 8 6
13 10 8 5 6 4 4 4 1 2 3 3 1 3 2 4 3 3 5 2 3 2 5 0 5 3 3 1 4 4 4 5 4 7 6 6 6 6 4 3 4 7 8 6 5
14 10 9 6 3 1 3 3 1 2 1 4 3 3 3 2 3 2 3 2 2 2 6 6 1 1 1 2 4 1 5 4 5 6 2 1 6 6 8 7 6 5 7 7 5
12 13 9 4 3 1 3 1 2 1 3 0 3 1 2 2 3 2 1 4 4 4 1 2 4 2 3 4 4 3 2 3 2 4 5 2 2 2 9 6 7 8 8 7 7
11 10 9 3 1 2 1 3 2 4 4 3 3 3 3 3 3 4 3 2 3 1 6 4 2 4 3 4 2 2 3 6 2 2 2 1 4 4 5 8 9 8 9 8 7
8 8 6 3 1 0 2 3 5 2 1 4 2 3 3 4 3 2 3 4 1 4 3 3 3 2 2 3 2 4 3 2 4 3 4 3 1 5 4 5 5 12 9 8 6
9 7 2 3 1 4 2 1 1 1 5 2 3 3 4 4 2 4 3 4 3 3 1 6 3 4 1 2 1 2 1 5 5 2 3 4 6 4 7 7 9 9 9 8 5
11 3 2 2 1 1 3 1 5 3 6 7 2 5 5 4 1 6 5 2 3 1 3 3 3 3 5 3 3 3 0 3 2 1 2 6 2 4 6 7 7 7 7 6 7
3 3 3 2 2 2 1 5 3 0 3 1 5 4 7 8 5 6 8 1 5 2 4 1 4 2 4 2 2 1 1 2 3 1 5 6 6 4 6 7 7 8 7 7 6
3 3 2 2 1 3 4 5 2 2 1 4 4 5 4 5 5 5 6 1 3 4 3 1 2 2 3 6 6 3 2 2 2 3 4 2 6 4 7 6 6 8 9 9 5
3 3 3 2 2 3 3 2 1 5 2 2 2 4 2 5 4 3 3 4 2 7 4 2 2 3 3 3 4 2 2 6 5 3 4 4 7 4 7 6 6 7 9 7 4
3 1 2 3 4 4 3 2 3 4 5 4 4 1 3 3 3 4 4 2 4 2 0 4 2 1 0 2 2 3 4 3 5 2 6 4 6 5 6 7 8 8 7 7 7
3 2 2 2 2 2 3 5 5 1 1 2 2 1 3 3 2 2 3 2 3 1 2 3 2 3 6 4 4 4 5 7 6 4 5 10 11 5 5 7 8 7 8 8 7
4 3 1 4 5 5 2 3 6 5 3 5 3 7 5 5 6 4 5 5 4 6 2 2 4 3 6 8 6 5 7 9 11 13 9 3 9 6 6 7 7 7 6 7 7
3 3 1 4 3 5 6 6 7 6 7 4 5 10 7 4 4 2 6 6 5 4 6 3 3 3 4 8 9 12 8 13 15 15 16 16 16 7 7 7 6 6 6 6 7
1 1 2 1 4 5 5 6 6 5 4 3 4 5 6 1 7 7 7 5 4 8 7 6 5 3 4 6 6 9 14 15 8 6 6 11 1 6 6 6 5 6 6 7 6
Wind_Direction
42 53 51 68 90 107 103 86 73 63 81 71 133 215 191 225 244 219 57 353 331 324 316 271 244 196 239 159 282 300 100 250 159 143 89 122 191 93 43 317 79 116 44 92 69
34 42 53 58 67 68 69 66 60 40 35 54 53 236 197 258 268 81 346 329 324 324 275 227 196 193 173 126 177 243 231 29 354 37 109 99 359 67 237 193 223 135 103 90 78
36 30 39 47 50 41 48 44 39 25 26 0 327 314 251 261 252 75 0 342 336 303 262 298 306 254 152 164 98 125 16 129 43 59 9 107 186 149 292 266 259 151 135 99 104
359 11 27 34 21 20 19 19 12 9 17 310 337 310 303 253 132 37 349 339 319 291 251 221 235 218 170 169 100 141 50 8 97 38 53 137 3 273 200 343 76 68 61 77 98
9 2 359 359 10 -0 0 353 358 8 353 322 355 175 224 181 58 24 327 328 24 281 305 266 233 256 221 102 169 223 124 112 93 140 246 306 260 263 300 201 113 126 105 137 126
354 352 354 355 351 351 345 340 353 354 321 359 351 24 250 97 307 22 354 42 23 276 205 291 349 335 64 89 316 68 124 137 160 177 213 260 277 61 191 244 141 157 111 118 103
353 350 347 348 350 346 347 346 340 320 332 325 338 290 51 87 56 331 41 58 34 355 104 7 357 306 137 124 140 133 150 178 191 177 236 79 252 224 209 193 144 170 187 133 107
350 349 347 345 347 346 334 320 313 311 310 319 330 297 73 102 317 37 14 101 73 55 72 1 333 70 347 110 176 202 235 206 129 169 157 209 142 153 133 161 170 198 137 122 120
353 347 347 342 338 331 322 312 298 291 266 285 255 227 95 158 105 45 9 56 98 95 49 138 286 75 182 212 185 198 246 192 167 192 70 208 336 149 174 185 212 204 134 133 117
352 348 341 340 336 326 305 270 272 283 225 236 262 231 123 72 46 291 85 11 1 119 172 223 203 203 238 204 212 308 214 156 153 161 233 240 261 226 192 168 295 283 125 122 150
352 345 336 326 322 316 313 253 217 158 41 27 6 99 90 115 207 60 24 284 224 242 205 189 216 70 63 38 343 323 335 314 103 124 260 236 251 251 105 134 235 197 121 129 115
348 340 331 315 314 307 287 349 61 8 109 101 156 87 59 325 157 79 295 272 207 211 114 116 76 72 48 7 312 304 286 330 93 128 228 289 277 285 142 156 165 139 126 129 142
348 341 340 318 313 299 41 67 46 336 254 118 56 64 55 284 52 53 334 10 303 174 208 18 69 88 301 195 275 78 1 37 2 317 235 289 274 107 138 119 64 101 118 125 139
345 342 351 325 311 14 79 89 345 337 218 134 166 116 184 296 104 16 35 320 220 69 61 69 78 301 199 95 353 116 13 0 327 351 286 107 285 192 162 169 163 146 125 138 108
345 346 325 11 328 238 62 329 316 241 50 274 110 68 125 310 124 122 98 235 20 120 214 178 160 170 221 49 347 103 1 338 314 289 322 185 96 336 136 181 184 160 132 99 98
336 331 332 268 192 42 299 290 241 39 269 126 126 143 195 186 121 135 187 186 344 162 47 86 21 357 41 92 37 152 238 205 215 222 28 166 135 235 173 198 171 144 136 142 145
337 331 330 306 23 300 281 234 45 182 340 166 151 188 259 138 151 243 190 164 218 127 161 149 118 103 296 195 211 245 247 331 352 7 218 74 305 241 132 35 169 145 140 139 151
327 314 295 62 61 315 247 54 211 278 161 50 143 159 219 161 147 173 199 197 217 262 146 157 297 169 180 8 58 42 309 155 211 241 234 163 238 217 98 66 64 103 122 132 127
323 199 218 86 221 199 274 149 222 130 120 158 138 212 170 179 221 210 220 56 78 262 209 181 111 97 28 357 359 149 268 357 12 21 56 245 124 79 115 106 109 111 122 151 139
279 227 126 76 281 243 209 265 177 15 115 181 216 223 188 172 191 198 163 69 144 1 336 32 119 217 151 196 130 53 276 90 343 178 254 256 230 191 183 169 171 148 150 117 107
254 244 89 122 173 260 188 223 135 192 236 211 215 160 275 164 223 190 148 205 129 149 300 0 122 146 144 205 171 151 201 209 114 182 195 278 269 36 75 98 171 175 157 136 109
291 227 157 200 203 214 240 285 11 159 205 217 308 333 224 164 197 269 178 80 133 162 167 110 90 185 158 78 46 7 300 166 141 229 241 162 271 71 101 106 98 35 130 136 171
267 283 187 173 224 211 135 191 289 164 192 184 205 275 37 225 209 160 87 7 52 310 115 182 152 74 115 41 66 209 198 224 121 89 227 166 253 155 140 106 67 49 38 31 29
276 259 178 210 147 265 168 219 192 26 268 152 68 108 163 211 29 73 143 124 105 122 64 41 318 212 191 142 136 194 212 197 167 162 233 218 252 190 185 53 71 54 37 14 355
229 256 116 201 213 209 32 329 191 174 272 192 189 222 194 205 181 202 180 129 163 140 162 111 189 298 291 303 313 257 244 211 212 224 225 187 261 302 46 76 77 69 28 359 338
283 308 212 286 145 200 165 216 215 173 163 217 253 188 224 227 211 171 174 153 179 148 171 162 231 85 286 258 260 266 257 252 254 247 250 259 267 90 82 64 43 21 356 337 322
111 237 278 224 192 182 201 207 206 169 167 61 215 256 213 329 61 51 16 32 75 148 191 142 127 99 270 66 355 310 236 231 242 248 264 257 218 70 43 29 15 326 307 292 290